Regional Weather Roundup
Issued by NWS

Home | Current Version | Previous Version | Graphics & Text | Print | Product List | Glossary Off
Versions: 1 2 3 4 5 6 7 8 9 10 11 12 13 14 15 16 17 18 19 20 21 22 23 24 25 26 27 28 29 30 31 32 33 34 35 36 37 38 39 40 41 42 43 44 45 46 47 48 49 50

000
ASUS43 KMKX 012021
RWRWI

WISCONSIN REGIONAL WEATHER ROUNDUP
NATIONAL WEATHER SERVICE MILWAUKEE/SULLIVAN WI
300 PM CDT MON SEP 01 2014

NOTE: "FAIR" INDICATES FEW OR NO CLOUDS BELOW 12,000 FEET WITH NO
SIGNIFICANT WEATHER AND/OR OBSTRUCTIONS TO VISIBILITY.

WIZ001-002-006>008-014>016-023>028-012100-
NORTHWEST WISCONSIN

CITY           SKY/WX    TMP DP  RH WIND       PRES   REMARKS
SUPERIOR ARPT  PTSUNNY   72  58  62 NW9       29.66S
ASHLAND        MOSUNNY   71  58  63 W9G18     29.66S
HAYWARD        PTSUNNY   71  57  61 VRB6      29.69S
SIREN          PTSUNNY   73  55  53 NW14G21   29.71S
RICE LAKE      PTSUNNY   73  56  54 W12       29.72F
LADYSMITH      PTSUNNY   71  59  67 W14       29.72R
EAU CLAIRE     MOSUNNY   76  57  51 W13G20    29.70S
MENOMONIE      PTCLDY    77  56  48 W15       29.71F
NEW RICHMOND   MOSUNNY   73  56  54 W12       29.74S
OSCEOLA        MOSUNNY   73  56  53 W12       29.76S
$$

WIZ003>005-009-010-017-018-012100-
NORTH CENTRAL WISCONSIN

CITY           SKY/WX    TMP DP  RH WIND       PRES   REMARKS
WOODRUFF       MOSUNNY   69  61  74 W8G18     29.67S
RHINELANDER    PTSUNNY   72  60  66 W15       29.68R
EAGLE RIVER    PTSUNNY   68  61  77 W13       29.65S
LAND O LAKES   PTSUNNY   67  63  85 NW6       29.66F
PHILLIPS       MOSUNNY   71  58  64 W8G16     29.68R
TOMAHAWK       MOSUNNY   72  59  64 W10G17    29.68R
MEDFORD        PTSUNNY   70  59  67 W12G20    29.70R
MERRILL        PTSUNNY   74  62  66 W16       29.67S
$$

WIZ029-030-035-036-043>047-012100-
CENTRAL WISCONSIN

CITY           SKY/WX    TMP DP  RH WIND       PRES   REMARKS
WAUSAU         SUNNY     71  63  75 W10       29.67S
MOSINEE        PTSUNNY   72  64  78 W13G20    29.70R
MARSHFIELD     PTSUNNY   75  65  70 W12       29.69S
STEVENS POINT  PTSUNNY   71  62  73 W12       29.69S
WAUPACA        PTSUNNY   76  66  70 W10G18    29.68F
WAUTOMA        MOSUNNY   76  65  68 W10       29.69F
WISC RAPIDS    MOSUNNY   72  64  76 W8        29.71S
CAMP DOUGLAS   LGT RAIN  66  66 100 SW7       29.72R FOG
$$

WIZ011>013-019>022-031-037>040-048>050-012100-
NORTHEAST WISCONSIN

CITY           SKY/WX    TMP DP  RH WIND       PRES   REMARKS
ANTIGO         CLOUDY    69  63  80 W12G17    29.68R
STURGEON BAY   CLOUDY    72  64  78 SW18G25   29.66S
GREEN BAY      CLOUDY    71  66  84 SW13G21   29.67S
MANITOWOC      CLOUDY    73  66  78 W12G21    29.68R
APPLETON       PTSUNNY   70  66  88 SW17      29.70R
CLINTONVILLE   PTSUNNY   73  64  73 SW15      29.66F
OSHKOSH        CLOUDY    72  66  81 SW8       29.69S
$$

WIZ032>034-041-042-053>061-012100-
SOUTHWEST WISCONSIN

CITY           SKY/WX    TMP DP  RH WIND       PRES   REMARKS
LA CROSSE      MOSUNNY   76  65  68 VRB5      29.72F
SPARTA         PTSUNNY   69  66  92 W7        29.74S
VIROQUA        MOCLDY    76  63  63 W14       29.75R
BOSCOBEL       MOSUNNY   77  67  71 SW6       29.73S
PRAIRIE DU CHI MOSUNNY   79  59  50 W13G21    29.73S HX  80
PLATTEVILLE    FAIR      78  68  71 W16G22    29.76S HX  80
$$

WIZ056-057-062-063-064-067-068-012100-
SOUTH CENTRAL WISCONSIN

CITY           SKY/WX    TMP DP  RH WIND       PRES   REMARKS
BARABOO/DELLS  PTSUNNY   78  64  61 W12       29.72S
LONE ROCK      PTSUNNY   80  67  64 W8        29.72S HX  82
WATERTOWN      PTSUNNY   78  65  64 W12G21    29.71S HX  80
MADISON        PTSUNNY   78  65  63 VRB5G16   29.73S HX  80
MIDDLETON      MOCLDY    79  64  61 W14       29.73S HX  80
MONROE         PTSUNNY   79  64  61 W15G25    29.75S HX  81
JANESVILLE     PTSUNNY   81  64  57 W12G17    29.73F HX  82
$$

WIZ051-052-058>065-066-070>072-012100-
SOUTHEAST WISCONSIN

CITY           SKY/WX    TMP DP  RH WIND       PRES   REMARKS
MILWAUKEE      MOSUNNY   81  62  52 W20G28    29.71S HX  82
WAUKESHA       PTSUNNY   75  63  64 SW15G24   29.73S
MILWAUKEE/TIMM PTSUNNY   79  61  53 SW21G29   29.72R HX  80
RACINE         PTSUNNY   82  66  58 SW14G22   29.73F HX  84
BURLINGTON     MOSUNNY   78  63  60 SW14G20   29.74R
KENOSHA        PTSUNNY   80  68  66 W17       29.73S HX  83
FOND DU LAC    CLOUDY    73  64  73 SW10G20   29.70S
SHEBOYGAN      CLOUDY    75  65  70 SW17G24   29.69S
WEST BEND      CLOUDY    75  61  60 W17G24    29.71S
JUNEAU         CLOUDY    74  65  74 SW21G26   29.73S
$$

LSZ147-162-012100-
LAKE SUPERIOR

STATION/POSITION TIME  TEMP    WIND        PRES    WAVE
                       AIR SEA DIR/SP/G            HT/PER
                 (UTC) (F)     (DEG/KT/KT) (MB)    (FT/S)
W MID LAKE BUOY  1950   61 57  240/ 14/ 17 1001.9R   2/ 4
DEVILS ISLAND    2000   64     240/ 20/ 22 1003.1R
PORT WING        1900   66     260/  9/ 15 1004.4S
SAXON HARBOR     1940   67     320/  8/ 10 1003.7S
$$

LMZ867-665-643>646-012100-
LAKE MICHIGAN

STATION/POSITION TIME  TEMP    WIND        PRES    WAVE
                       AIR SEA DIR/SP/G            HT/PER
                 (UTC) (F)     (DEG/KT/KT) (MB)    (FT/S)
N MID LAKE BUOY  1950   67 65  230/ 16/ 17 1002.8S   3/ 6
NORTHPORT PIER   1900   70     230/  7/ 12 1003.4S
KEWAUNEE LAKESHO 2000   73     240/ 10/ 15 1003.7S
SHEBOYGAN LAKESH 2000   77 58  240/ 15/ 18 1004.9S
ATWATER BUOY     2000   73     230/ 16/ 19 1007.0S
MILWAUKEE LAKESH 2000   79     250/ 19/ 23   N/A
S MID LAKE BUOY  1950   73 70  210/ 14/ 16 1006.5S   3/ 5
KENOSHA   LAKESH 2000   81     250/ 11/ 16 1006.4S
$$

TC  - TEMPERATURE IN CELSIUS
VSB - VISIBILITY IN STATUTE MILES
WCI - WIND CHILL INDEX
HX  - HEAT INDEX




USA.gov is the U.S. government's official web portal to all federal, state and local government web resources and services.